Location: Artiguedieu
(43.5000°N, 0.5454°E)
Time: 18:38:38
(UTC+00:00)

Transit 2A Rocket - Pass Details

Date: 29 July 2021
Orbit: 586 x 916 km, 66.7° (Epoch: 21 September)

Event Time Altitude Azimuth Distance (km) Brightness Sun altitude
Rises 01:20:11 0° 310° (NW) 3,333 8.6 -25.4°
Reaches altitude 10° 01:23:37 10° 288° (WNW) 2,460 7.6 -25.2°
Enters shadow 01:24:41 13° 278° (W) 2,289 7.3 -25.1°
Maximum altitude 01:26:42 15° 255° (WSW) 2,167 - -25.0°
Drops below altitude 10° 01:29:52 10° 222° (SW) 2,542 - -24.8°
Sets 01:33:32 0° 201° (SSW) 3,513 - -24.5°
